Change the Weather History Date:

Friday, January 24, 2014

  Actual Average Record
Temperature  
Mean Temperature 5 °F 21 °F  
Max Temperature 14 °F 31 °F 33 °F (2015)
Min Temperature -5 °F 11 °F -5 °F (2014)
Degree Days  
Heating Degree Days 60 44  
Month to date heating degree days 1058 1052  
Since 1 July heating degree days 3721 3824  
Cooling Degree Days 0 0  
Month to date cooling degree days 0 0  
Year to date cooling degree days 0 0  
Moisture  
Dew Point -7 °F    
Average Humidity 60    
Maximum Humidity 78    
Minimum Humidity 42    
Precipitation  
Precipitation T in 0.07 in 0.09 in (2015)
Month to date precipitation 2.83 2.21  
Year to date precipitation 2.83 2.21  
Sea Level Pressure  
Sea Level Pressure 30.17 in    
Wind  
Wind Speed 6 mph (SW)    
Max Wind Speed 15 mph    
Max Gust Speed 23 mph    
Visibility 10 miles    
Events      
T = Trace of Precipitation, MM = Missing Value Source: NWS Daily Summary

Daily Weather History Graph

Daily Weather History Graph

Search for Another Location

Airport or City:

Trip Planner

Search our weather history database for the weather conditions in past years. The results will help you decide how hot, cold, wet, or windy it might be!

Date:

Astronomy

Jan. 24, 2014 Rise Set
Actual Time 7:15 AM EST 4:55 PM EST
Civil Twilight 6:44 AM EST 5:26 PM EST
Nautical Twilight 6:10 AM EST 6:00 PM EST
Astronomical Twilight 5:36 AM EST 6:34 PM EST
Moon 12:37 AM EST (1/24) 11:13 AM EST (1/24)
Length of Visible Light 10h 41m
Length of Day
9h 40m
Last Quarter, 45% of the Moon is Illuminated
Jan 24
Last Quarter
Jan 30
New
Feb 6
First Quarter
Feb 14
Full
Feb 22
Last Quarter

Hourly Weather History & Observations

Time (EST) Temp. Windchill Dew Point Humidity Pressure Visibility Wind Dir Wind Speed Gust Speed Precip Events Conditions
12:54 AM 3.9 °F -8.2 °F -7.1 °F 60% 30.20 in 10.0 mi WSW 6.9 mph - N/A   Clear
1:54 AM 1.9 °F -10.6 °F -8.0 °F 63% 30.22 in 10.0 mi WSW 6.9 mph - N/A   Clear
2:54 AM 1.0 °F -11.7 °F -9.0 °F 63% 30.24 in 10.0 mi West 6.9 mph - N/A   Clear
3:54 AM -0.0 °F -14.2 °F -9.9 °F 63% 30.24 in 10.0 mi WSW 8.1 mph - N/A   Clear
4:54 AM -0.9 °F -12.7 °F -11.0 °F 62% 30.25 in 10.0 mi WSW 5.8 mph - N/A   Clear
5:54 AM -0.9 °F -12.7 °F -11.0 °F 62% 30.27 in 10.0 mi SW 5.8 mph - N/A   Clear
6:54 AM -2.9 °F - -11.0 °F 68% 30.30 in 10.0 mi Calm Calm - N/A   Clear
7:54 AM -4.0 °F - -9.9 °F 76% 30.30 in 10.0 mi Calm Calm - N/A   Clear
8:54 AM 1.0 °F -6.7 °F -8.0 °F 66% 30.30 in 10.0 mi Variable 3.5 mph - N/A   Clear
9:54 AM 3.0 °F -9.3 °F -8.0 °F 60% 30.30 in 10.0 mi WNW 6.9 mph - N/A   Clear
10:54 AM 5.0 °F -8.1 °F -8.0 °F 55% 30.30 in 10.0 mi West 8.1 mph 18.4 mph N/A   Clear
11:54 AM 8.1 °F -4.3 °F -7.1 °F 50% 30.26 in 10.0 mi West 8.1 mph - 0.00 in   Partly Cloudy
12:54 PM 9.0 °F -3.2 °F -5.1 °F 53% 30.22 in 10.0 mi SW 8.1 mph 19.6 mph 0.00 in   Overcast
1:54 PM 10.9 °F - -4.0 °F 51% 30.20 in 10.0 mi North - - N/A   Partly Cloudy
2:54 PM 12.0 °F -0.4 °F -5.1 °F 46% 30.16 in 10.0 mi WNW 9.2 mph - N/A   Partly Cloudy
3:54 PM 10.9 °F 2.9 °F -5.1 °F 49% 30.14 in 10.0 mi Variable 4.6 mph - N/A   Clear
4:54 PM 9.0 °F 0.6 °F -5.1 °F 53% 30.11 in 10.0 mi ESE 4.6 mph - N/A   Clear
5:54 PM 6.1 °F - -4.0 °F 63% 30.12 in 10.0 mi Calm Calm - N/A   Clear
6:54 PM 12.0 °F 4.1 °F -5.1 °F 46% 30.09 in 10.0 mi SSE 4.6 mph - N/A   Clear
7:54 PM 12.0 °F 4.1 °F -5.1 °F 46% 30.06 in 10.0 mi South 4.6 mph - N/A   Partly Cloudy
8:54 PM 12.9 °F 5.2 °F -6.0 °F 43% 30.01 in 10.0 mi South 4.6 mph - N/A   Clear
9:54 PM 12.9 °F 0.7 °F -7.1 °F 41% 29.98 in 10.0 mi South 9.2 mph - N/A   Partly Cloudy
10:54 PM 12.9 °F -0.2 °F -5.1 °F 45% 29.96 in 10.0 mi SSW 10.4 mph - N/A   Partly Cloudy
11:54 PM 12.9 °F 1.6 °F -2.9 °F 49% 29.93 in 10.0 mi South 8.1 mph - N/A   Clear